User: anonymous   Login
Location: Freistadt
(48.5112°N, 14.5013°E)
Time: 10:48:31
(UTC+02:00)
Language:

EO-79 - Orbit

View from above orbital plane
View from above orbital plane
View from above satellite
View from above satellite

Ground track
Ground track

The orbit data is extracted from the following two-line orbital elements,

1 40025U 14033R   23090.21683191  .00009186  00000-0  88722-3 0  9991
2 40025  97.9898  35.6681 0011014 182.4023 177.7144 14.93020516477010
Epoch (UTC): 31 March 2023 05:12:14
Eccentricity: 0.0011014
inclination: 97.9898°
perigee height: 581 km
apogee height: 596 km
right ascension of ascending node: 35.6681°
argument of perigee: 182.4023°
revolutions per day: 14.93020516
mean anomaly at epoch: 177.7144°
orbit number at epoch: 47701

The dashed part of the orbit path shows where the satellite is in the earth's shadow,  

DLR